FW0869 Weather Reports


Display with metric or nautical units.
time (UTC)temp
F
wind
direction
speed
MPH
gust
MPH
rain 1hr
in
rain 24hr
in
rain mn
in
humidity
%
barometer
mb
20260505055050 44 192 0.0 2.0 0.00 0.17 0.17 89 1013.7
20260505054841 44 192 1.0 3.0 0.00 0.17 0.17 89 1013.7
20260505054748 44 192 1.0 3.0 0.00 0.17 0.17 89 1013.7
20260505054618 44 192 1.0 3.0 0.00 0.17 0.17 89 1013.7
20260505054545 44 192 1.0 3.0 0.00 0.17 0.17 89 1013.7
20260505054333 44 192 1.0 3.0 0.00 0.17 0.17 89 1013.7
20260505054231 44 192 1.0 3.0 0.00 0.17 0.17 89 1013.7
20260505054140 44 192 1.0 3.0 0.00 0.17 0.17 89 1013.6
20260505053931 44 192 1.0 2.0 0.00 0.17 0.17 89 1013.6
20260505053827 44 192 1.0 2.0 0.00 0.17 0.17 89 1013.6
20260505053727 44 192 1.0 2.0 0.00 0.17 0.17 89 1013.5
20260505053632 44 192 1.0 3.0 0.00 0.17 0.17 89 1013.5
20260505053437 44 192 1.0 3.0 0.00 0.17 0.17 89 1013.5
20260505053102 44 192 1.0 3.0 0.00 0.17 0.17 89 1013.5
20260505053021 44 192 1.0 3.0 0.00 0.17 0.17 89 1013.5
20260505052918 44 192 1.0 3.0 0.00 0.17 0.17 89 1013.5
20260505052818 44 192 1.0 3.0 0.00 0.17 0.17 89 1013.5
20260505052717 44 192 1.0 3.0 0.00 0.17 0.17 89 1013.5
20260505052601 44 192 1.0 2.0 0.00 0.17 0.17 89 1013.5
20260505052515 44 192 1.0 2.0 0.00 0.17 0.17 89 1013.5
20260505052413 44 192 1.0 3.0 0.00 0.17 0.17 89 1013.5
20260505052309 44 192 1.0 3.0 0.00 0.17 0.17 89 1013.5
20260505052207 44 192 1.0 3.0 0.00 0.17 0.17 88 1013.5
20260505052102 44 192 1.0 3.0 0.00 0.17 0.17 88 1013.5
20260505052008 44 192 1.0 3.0 0.00 0.17 0.17 88 1013.5
20260505051907 44 192 2.0 3.0 0.00 0.17 0.17 88 1013.5
20260505051805 44 192 2.0 3.0 0.00 0.17 0.17 88 1013.5
20260505051706 44 192 2.0 3.0 0.00 0.17 0.17 88 1013.5
20260505051601 44 192 2.0 3.0 0.00 0.17 0.17 88 1013.5
20260505051504 44 192 2.0 3.0 0.00 0.17 0.17 88 1013.6
20260505051402 44 192 2.0 3.0 0.00 0.17 0.17 88 1013.5
20260505051301 44 192 2.0 3.0 0.00 0.17 0.17 88 1013.6
20260505051159 44 192 2.0 3.0 0.00 0.17 0.17 88 1013.6
20260505051103 45 192 2.0 4.0 0.00 0.17 0.17 88 1013.7
20260505051059 45 192 2.0 4.0 0.00 0.17 0.17 88 1013.7
20260505050957 45 192 2.0 4.0 0.00 0.17 0.17 88 1013.7
20260505050854 45 192 2.0 4.0 0.00 0.17 0.17 88 1013.7
20260505050749 45 192 2.0 4.0 0.00 0.17 0.17 88 1013.7
20260505050649 45 192 2.0 4.0 0.00 0.17 0.17 88 1013.9
20260505050601 45 192 2.0 4.0 0.00 0.17 0.17 88 1013.9
20260505050549 45 192 2.0 4.0 0.00 0.17 0.17 88 1013.9
20260505050449 45 192 2.0 4.0 0.00 0.17 0.17 88 1013.7
20260505050349 45 192 2.0 4.0 0.00 0.17 0.17 88 1013.7
20260505050247 45 192 2.0 4.0 0.01 0.17 0.17 88 1013.7
20260505050148 45 204 2.0 4.0 0.01 0.17 0.17 88 1013.7
20260505041755 46 260 2.0 4.0 0.07 0.17 0.17 88 1014.0
20260505041705 46 260 2.0 4.0 0.07 0.17 0.17 88 1014.0
20260505041551 46 260 2.0 4.0 0.08 0.17 0.17 88 1014.0
20260505041454 46 217 2.0 4.0 0.08 0.17 0.17 88 1014.1
20260505041353 46 227 2.0 4.0 0.08 0.17 0.17 88 1014.1
20260505041253 46 227 2.0 4.0 0.08 0.17 0.17 88 1014.2
20260505041153 46 227 2.0 4.0 0.09 0.17 0.17 88 1014.2
20260505041052 46 227 2.0 5.0 0.09 0.17 0.17 87 1014.2
20260505041006 46 227 2.0 5.0 0.09 0.17 0.17 87 1014.3
20260505040651 46 234 3.0 5.0 0.10 0.17 0.17 87 1014.2
20260505040551 46 234 3.0 5.0 0.10 0.17 0.17 87 1014.2
20260505040451 46 234 3.0 5.0 0.10 0.17 0.17 87 1014.2
20260505040352 46 241 3.0 5.0 0.11 0.17 0.17 87 1014.2
20260505040251 46 227 3.0 5.0 0.10 0.16 0.16 87 1014.2
20260505040153 46 218 3.0 5.0 0.10 0.16 0.16 87 1014.2
20260505040052 46 222 3.0 5.0 0.10 0.16 0.16 87 1014.1
20260505035947 46 233 3.0 5.0 0.11 0.16 0.16 87 1014.2
20260505035848 46 202 3.0 5.0 0.11 0.16 0.16 87 1014.1
20260505035805 46 242 2.0 5.0 0.11 0.16 0.16 87 1014.1
20260505035758 46 213 2.0 5.0 0.12 0.16 0.16 86 1014.1
20260505035439 46 203 2.0 5.0 0.12 0.16 0.16 86 1014.1
20260505035339 46 227 2.0 4.0 0.13 0.16 0.16 86 1014.1
20260505035240 46 238 2.0 4.0 0.13 0.16 0.16 86 1014.1
20260505035150 46 230 2.0 4.0 0.13 0.16 0.16 86 1014.0
20260505035039 46 234 2.0 4.0 0.14 0.16 0.16 86 1014.0
20260505034934 46 224 2.0 4.0 0.14 0.16 0.16 86 1014.0
20260505034833 46 223 2.0 4.0 0.14 0.16 0.16 85 1014.0
20260505034733 46 221 2.0 5.0 0.14 0.16 0.16 85 1014.0
20260505034644 46 238 2.0 5.0 0.14 0.16 0.16 85 1014.0
20260505034533 46 224 2.0 5.0 0.13 0.15 0.16 85 1014.0
20260505034428 46 196 2.0 6.0 0.13 0.15 0.15 85 1014.1
20260505034327 46 221 2.0 7.0 0.13 0.15 0.15 85 1014.1
20260505034227 47 178 2.0 7.0 0.13 0.15 0.15 85 1014.1
20260505034150 47 217 2.0 7.0 0.14 0.15 0.15 85 1014.1
20260505034039 47 229 3.0 7.0 0.13 0.14 0.15 85 1014.1
20260505033723 47 244 4.0 9.0 0.13 0.14 0.14 84 1014.1
20260505033623 47 244 5.0 9.0 0.13 0.14 0.14 84 1014.1
20260505033521 47 244 5.0 9.0 0.13 0.14 0.14 84 1014.2
20260505033415 47 226 5.0 9.0 0.12 0.13 0.14 84 1014.2
20260505033315 47 222 5.0 9.0 0.12 0.13 0.13 84 1014.2
20260505033216 47 206 6.0 9.0 0.12 0.13 0.13 84 1014.3
20260505033128 47 219 6.0 9.0 0.12 0.13 0.13 84 1014.3
20260505033120 47 223 6.0 9.0 0.12 0.13 0.13 84 1014.3
20260505032817 47 267 6.0 10.0 0.11 0.12 0.12 83 1014.3
20260505032609 47 232 5.0 10.0 0.11 0.12 0.12 83 1014.2
20260505032509 47 242 6.0 10.0 0.11 0.12 0.12 83 1014.2
20260505032406 47 245 6.0 11.0 0.10 0.11 0.11 83 1014.2
20260505032305 47 240 6.0 11.0 0.10 0.11 0.11 83 1014.2
20260505032205 47 242 6.0 12.0 0.10 0.11 0.11 83 1014.2
20260505032105 47 263 6.0 12.0 0.10 0.11 0.11 83 1014.2
20260505032005 47 243 7.0 15.0 0.09 0.10 0.11 83 1014.2
20260505031757 48 220 7.0 15.0 0.09 0.10 0.10 83 1014.2
20260505031658 48 235 8.0 16.0 0.09 0.10 0.10 82 1014.2
20260505031557 48 276 9.0 16.0 0.08 0.09 0.10 82 1014.0
20260505031456 48 238 9.0 16.0 0.08 0.09 0.09 82 1014.1
20260505031351 48 256 9.0 16.0 0.08 0.09 0.09 82 1014.0
20260505031251 48 275 9.0 16.0 0.08 0.09 0.09 82 1014.0
20260505031151 48 277 10.0 16.0 0.07 0.08 0.09 81 1014.0
20260505031051 48 289 10.0 16.0 0.07 0.08 0.08 81 1014.0
20260505030959 48 259 10.0 16.0 0.07 0.08 0.08 81 1013.9
20260505030645 48 284 10.0 19.0 0.06 0.07 0.07 81 1013.9
20260505030545 49 284 10.0 19.0 0.06 0.07 0.07 81 1014.0
20260505030446 49 270 10.0 19.0 0.06 0.07 0.07 81 1014.0
20260505030341 49 271 10.0 19.0 0.05 0.06 0.07 81 1013.9
20260505030240 49 292 10.0 19.0 0.05 0.06 0.06 81 1013.9
20260505030139 49 318 10.0 19.0 0.05 0.06 0.06 81 1013.9
20260505030050 49 293 10.0 19.0 0.05 0.06 0.06 81 1013.7
20260505025939 49 261 10.0 19.0 0.04 0.05 0.06 80 1013.7
20260505025834 49 299 10.0 18.0 0.04 0.05 0.05 80 1013.7
20260505025734 49 279 10.0 18.0 0.04 0.05 0.05 80 1013.6
20260505025634 49 313 10.0 18.0 0.03 0.04 0.05 80 1013.6
20260505025534 49 288 10.0 18.0 0.03 0.04 0.04 80 1013.6
20260505025433 49 292 10.0 16.0 0.03 0.04 0.04 80 1013.5
20260505025327 49 306 10.0 16.0 0.02 0.03 0.04 80 1013.5
20260505025227 49 270 10.0 16.0 0.02 0.03 0.03 80 1013.5
20260505025133 49 313 10.0 16.0 0.02 0.03 0.03 79 1013.4
20260505024927 49 339 10.0 16.0 0.01 0.02 0.02 78 1013.5
20260505024822 49 284 10.0 14.0 0.01 0.02 0.02 78 1013.4
20260505024722 49 315 10.0 14.0 0.01 0.02 0.02 78 1013.4
20260505024620 50 272 9.0 14.0 0.01 0.02 0.02 78 1013.3
20260505024521 50 289 9.0 14.0 0.01 0.02 0.02 77 1013.3
20260505024421 50 299 9.0 14.0 0.01 0.02 0.02 77 1013.3
20260505024316 50 325 8.0 14.0 0.01 0.02 0.02 77 1013.3
20260505024215 50 299 8.0 14.0 0.01 0.02 0.02 76 1013.3
20260505024115 50 321 7.0 14.0 0.00 0.01 0.02 76 1013.2
20260505024015 50 292 6.0 13.0 0.00 0.01 0.01 76 1013.2
20260505023915 50 285 6.0 13.0 0.00 0.01 0.01 76 1013.2
20260505023717 50 306 5.0 10.0 0.00 0.01 0.01 75 1013.2
20260505023520 50 313 5.0 9.0 0.00 0.01 0.01 74 1012.9
20260505023513 50 348 5.0 9.0 0.00 0.01 0.01 74 1012.9
20260505023303 50 305 5.0 14.0 0.00 0.01 0.01 74 1012.9
20260505023204 50 347 5.0 14.0 0.00 0.01 0.01 74 1013.0
20260505023103 50 338 6.0 14.0 0.00 0.01 0.01 73 1013.0
20260505023014 50 19 6.0 14.0 0.00 0.01 0.01 73 1013.0
20260505022902 50 330 6.0 14.0 0.00 0.01 0.01 73 1012.9
20260505022759 50 333 6.0 14.0 0.00 0.01 0.01 72 1012.9
20260505022657 50 311 7.0 14.0 0.00 0.01 0.01 72 1012.9
20260505022557 50 275 7.0 14.0 0.00 0.01 0.01 72 1012.9
20260505022457 50 339 8.0 14.0 0.00 0.01 0.01 72 1012.8
20260505022356 50 355 7.0 14.0 0.00 0.01 0.01 71 1012.8
20260505022258 50 338 7.0 14.0 0.00 0.01 0.01 71 1012.8
20260505022051 50 0 7.0 14.0 0.00 0.01 0.01 71 1012.7
20260505021952 50 311 6.0 14.0 0.00 0.01 0.01 71 1012.7
20260505021859 51 331 6.0 14.0 0.00 0.01 0.01 70 1012.7
20260505021851 51 302 6.0 14.0 0.00 0.01 0.01 70 1012.6
20260505021752 51 340 6.0 14.0 0.00 0.01 0.01 70 1012.7
20260505021545 51 350 6.0 15.0 0.00 0.01 0.01 70 1012.7
20260505021456 51 317 6.0 15.0 0.00 0.01 0.01 70 1012.7
20260505021449 51 300 6.0 15.0 0.00 0.01 0.01 69 1012.7
20260505021240 51 15 7.0 15.0 0.00 0.01 0.01 69 1012.7
20260505021139 51 5 7.0 15.0 0.00 0.01 0.01 69 1012.7
20260505021039 51 355 7.0 15.0 0.00 0.01 0.01 68 1012.7
20260505020939 51 355 7.0 15.0 0.00 0.01 0.01 68 1012.7
20260505020859 51 327 7.0 15.0 0.00 0.01 0.01 68 1012.7
20260505020839 51 355 7.0 15.0 0.00 0.01 0.01 68 1012.7
20260505020733 51 11 7.0 15.0 0.00 0.01 0.01 67 1012.7
20260505020639 51 349 7.0 15.0 0.00 0.01 0.01 67 1012.7
20260505020446 51 308 6.0 14.0 0.00 0.01 0.01 67 1012.6
20260505020442 51 0 6.0 14.0 0.00 0.01 0.01 67 1012.6
20260505020127 52 348 6.0 13.0 0.00 0.01 0.01 67 1012.6
20260505020027 52 333 6.0 13.0 0.00 0.01 0.01 66 1012.6
20260505020004 52 0 6.0 13.0 0.00 0.01 0.01 66 1012.8
20260505015826 52 26 6.0 13.0 0.00 0.01 0.01 66 1012.8
20260505015721 52 344 6.0 13.0 0.00 0.01 0.01 66 1012.8
20260505015628 52 282 6.0 13.0 0.00 0.01 0.01 66 1012.8
20260505015421 53 332 6.0 13.0 0.00 0.01 0.01 66 1012.8
20260505015358 53 14 6.0 13.0 0.00 0.01 0.01 65 1012.8
20260505015321 53 334 6.0 14.0 0.00 0.01 0.01 65 1012.8
20260505015217 53 11 7.0 14.0 0.00 0.01 0.01 64 1012.8
20260505015115 53 288 7.0 14.0 0.00 0.01 0.01 64 1012.8
20260505015015 53 306 8.0 16.0 0.00 0.01 0.01 63 1012.8
20260505014915 53 337 8.0 16.0 0.00 0.01 0.01 63 1012.8
20260505014900 53 346 8.0 16.0 0.00 0.01 0.01 62 1012.8
20260505014815 53 331 7.0 16.0 0.00 0.01 0.01 62 1012.8
20260505014716 54 342 6.0 16.0 0.00 0.01 0.01 61 1012.8
20260505014509 54 289 5.0 16.0 0.00 0.01 0.01 59 1012.7
20260505014409 54 53 5.0 16.0 0.00 0.01 0.01 58 1012.7
20260505014400 54 17 5.0 16.0 0.00 0.01 0.01 58 1012.7
20260505014310 54 40 4.0 16.0 0.00 0.01 0.01 58 1012.6
20260505014127 55 5 2.0 16.0 0.00 0.01 0.01 56 1012.6
20260505014121 55 35 1.0 12.0 0.00 0.01 0.01 55 1012.7
20260505013659 55 34 1.0 3.0 0.00 0.01 0.01 54 1012.3
20260505013622 55 34 1.0 4.0 0.00 0.01 0.01 54 1012.4
20260505013615 55 34 1.0 4.0 0.00 0.01 0.01 54 1012.3
20260505013150 55 34 1.0 4.0 0.00 0.01 0.01 54 1012.2
20260505013051 55 34 1.0 4.0 0.00 0.01 0.01 55 1012.2
20260505012952 55 34 1.0 4.0 0.00 0.01 0.01 55 1012.4
20260505012851 55 34 1.0 4.0 0.00 0.01 0.01 55 1012.4
20260505012750 55 34 1.0 4.0 0.00 0.01 0.01 54 1012.4
20260505012649 55 34 1.0 4.0 0.00 0.01 0.01 54 1012.4
20260505012549 55 28 1.0 4.0 0.00 0.01 0.01 54 1012.4
20260505012449 55 10 1.0 4.0 0.00 0.01 0.01 54 1012.4
20260505012348 55 159 1.0 4.0 0.00 0.01 0.01 55 1012.4
20260505012245 55 159 1.0 4.0 0.00 0.01 0.01 55 1012.4
20260505012145 55 159 1.0 4.0 0.00 0.01 0.01 54 1012.4
20260505012113 55 159 1.0 4.0 0.00 0.01 0.01 54 1012.4
20260505011846 55 159 1.0 4.0 0.00 0.01 0.01 53 1012.4
20260505011639 55 159 2.0 5.0 0.00 0.01 0.01 53 1012.4
20260505011434 56 159 2.0 5.0 0.00 0.01 0.01 53 1012.4
20260505011355 56 159 2.0 6.0 0.00 0.01 0.01 53 1012.4
20260505011341 56 159 2.0 6.0 0.00 0.01 0.01 53 1012.3
20260505011128 56 159 2.0 6.0 0.00 0.01 0.01 53 1012.2
20260505011027 56 159 2.0 6.0 0.00 0.01 0.01 53 1012.2
20260505010927 56 159 2.0 6.0 0.00 0.01 0.01 53 1012.2
20260505010856 56 159 2.0 6.0 0.00 0.01 0.01 53 1012.2
20260505010827 56 159 3.0 6.0 0.00 0.01 0.01 53 1012.2
20260505010727 56 159 3.0 6.0 0.00 0.01 0.01 53 1012.2
20260505010621 56 159 3.0 6.0 0.00 0.01 0.01 52 1012.3
20260505010521 56 159 3.0 6.0 0.00 0.01 0.01 52 1012.3
20260505010431 56 159 3.0 6.0 0.00 0.01 0.01 52 1012.3
20260505010426 56 159 3.0 6.0 0.00 0.01 0.01 52 1012.3
20260505010222 56 147 3.0 6.0 0.00 0.01 0.01 52 1012.3
20260505010107 56 160 4.0 11.0 0.00 0.01 0.01 52 1012.3
20260505005811 56 134 4.0 11.0 0.00 0.01 0.01 52 1012.2
20260505005711 56 129 5.0 11.0 0.00 0.01 0.01 51 1012.2
20260505005612 56 101 5.0 11.0 0.00 0.01 0.01 51 1012.2
20260505005404 56 131 6.0 11.0 0.00 0.01 0.01 50 1012.1
20260505005350 56 157 6.0 11.0 0.00 0.01 0.01 50 1012.1
20260505005306 57 112 6.0 11.0 0.00 0.01 0.01 50 1012.1
20260505005205 57 141 6.0 11.0 0.00 0.01 0.01 50 1012.1
20260505005101 57 151 5.0 10.0 0.00 0.01 0.01 49 1012.1
20260505005001 57 148 5.0 10.0 0.00 0.01 0.01 49 1012.1
20260505004900 57 140 5.0 10.0 0.00 0.01 0.01 48 1012.1
20260505004851 57 126 5.0 10.0 0.00 0.01 0.01 48 1012.2
20260505004802 57 157 5.0 10.0 0.00 0.01 0.01 48 1012.2
20260505004658 57 139 4.0 9.0 0.00 0.01 0.01 48 1012.2
20260505004553 57 109 4.0 9.0 0.00 0.01 0.01 47 1012.1
20260505004453 57 92 4.0 9.0 0.00 0.01 0.01 48 1012.2
20260505004355 57 140 3.0 9.0 0.00 0.01 0.01 48 1012.2
20260505004351 57 145 3.0 9.0 0.00 0.01 0.01 48 1012.2
20260505004259 58 138 3.0 9.0 0.00 0.01 0.01 48 1012.2
20260505004052 58 156 3.0 9.0 0.00 0.01 0.01 48 1012.2
20260505003952 58 137 3.0 9.0 0.00 0.01 0.01 47 1012.2
20260505003856 58 134 2.0 7.0 0.00 0.01 0.01 47 1012.2
20260505003850 58 134 2.0 7.0 0.00 0.01 0.01 47 1012.1
20260505003800 58 134 2.0 7.0 0.00 0.01 0.01 47 1012.1
20260505003551 58 128 2.0 4.0 0.00 0.01 0.01 47 1012.1
20260505003501 58 128 1.0 4.0 0.00 0.01 0.01 47 1012.1
20260505003349 58 128 1.0 4.0 0.00 0.01 0.01 47 1012.1
20260505003250 58 121 1.0 4.0 0.00 0.01 0.01 46 1012.0
20260505003149 58 323 1.0 3.0 0.00 0.01 0.01 46 1012.0
20260505003050 58 323 1.0 3.0 0.00 0.01 0.01 46 1012.0
20260505002950 58 323 1.0 3.0 0.00 0.01 0.01 46 1012.1
20260505002852 58 323 1.0 3.0 0.00 0.01 0.01 46 1012.1
20260505002848 58 323 1.0 3.0 0.00 0.01 0.01 46 1012.0
20260505002748 58 324 1.0 3.0 0.00 0.01 0.01 46 1012.0
20260505002650 58 323 1.0 3.0 0.00 0.01 0.01 46 1012.0
20260505002549 58 324 1.0 3.0 0.00 0.01 0.01 45 1012.1
20260505002449 58 323 1.0 3.0 0.00 0.01 0.01 45 1012.0
20260505002352 58 323 1.0 3.0 0.00 0.01 0.01 45 1012.1
20260505002345 58 324 1.0 3.0 0.00 0.01 0.01 45 1012.1
20260505002242 58 323 1.0 5.0 0.00 0.01 0.01 45 1012.1
20260505002142 58 324 1.0 5.0 0.00 0.01 0.01 46 1012.1
20260505002043 58 323 1.0 5.0 0.00 0.01 0.01 46 1012.1
20260505001942 58 323 2.0 5.0 0.00 0.01 0.01 46 1012.1
20260505001851 58 324 2.0 7.0 0.00 0.01 0.01 46 1012.1
20260505001843 58 323 2.0 7.0 0.00 0.01 0.01 46 1012.1
20260505001545 58 323 3.0 8.0 0.00 0.01 0.01 45 1011.9
20260505001351 58 324 4.0 9.0 0.00 0.01 0.01 45 1011.9
20260505001337 58 323 4.0 9.0 0.00 0.01 0.01 45 1011.9
20260505001236 58 323 4.0 9.0 0.00 0.01 0.01 45 1012.0
20260505001135 58 324 4.0 9.0 0.00 0.01 0.01 45 1012.0
20260505001035 58 324 5.0 9.0 0.00 0.01 0.01 45 1012.0
20260505000935 58 308 5.0 10.0 0.00 0.01 0.01 45 1012.0
20260505000850 58 302 5.0 10.0 0.00 0.01 0.01 45 1012.0
20260505000835 58 293 5.0 10.0 0.00 0.01 0.01 45 1012.0
20260505000742 58 306 4.0 10.0 0.00 0.01 0.01 45 1011.9
20260505000543 58 336 5.0 10.0 0.00 0.01 0.01 45 1011.9
20260505000351 58 313 5.0 11.0 0.00 0.01 0.01 45 1011.9
20260505000343 58 325 5.0 11.0 0.00 0.01 0.01 45 1011.7
20260505000135 58 327 5.0 11.0 0.00 0.01 0.01 45 1011.7
20260505000036 58 338 5.0 11.0 0.00 0.01 0.01 46 1011.6
20260504235936 58 355 6.0 13.0 0.00 0.01 0.01 46 1011.7
20260504235851 58 9 6.0 13.0 0.00 0.01 0.01 46 1011.7
20260504235835 58 336 6.0 13.0 0.00 0.01 0.01 46 1011.6
20260504235735 58 306 6.0 13.0 0.00 0.01 0.01 45 1011.6
20260504235630 58 5 6.0 13.0 0.00 0.01 0.01 45 1011.6
20260504235529 58 316 6.0 13.0 0.00 0.01 0.01 44 1011.6
20260504235429 59 300 6.0 13.0 0.00 0.01 0.01 45 1011.7
20260504235351 59 299 6.0 13.0 0.00 0.01 0.01 45 1011.7
20260504235329 59 348 6.0 13.0 0.00 0.01 0.01 45 1011.7
20260504235229 59 338 6.0 13.0 0.00 0.01 0.01 45 1011.6
20260504235123 59 325 6.0 13.0 0.00 0.01 0.01 45 1011.6
20260504235030 59 355 6.0 13.0 0.00 0.01 0.01 45 1011.6
20260504234851 59 326 5.0 10.0 0.00 0.01 0.01 44 1011.6
20260504234830 59 338 5.0 10.0 0.00 0.01 0.01 44 1011.6
20260504234621 59 299 6.0 10.0 0.00 0.01 0.01 44 1011.6
20260504234521 59 332 6.0 10.0 0.00 0.01 0.01 44 1011.6
20260504234433 59 319 6.0 10.0 0.00 0.01 0.01 44 1011.6
20260504234428 59 332 6.0 10.0 0.00 0.01 0.01 44 1011.5
20260504234222 59 301 5.0 10.0 0.00 0.01 0.01 44 1011.5
20260504234121 59 334 5.0 10.0 0.00 0.01 0.01 44 1011.5
20260504234021 59 350 5.0 10.0 0.00 0.01 0.01 44 1011.4
20260504233920 59 340 5.0 11.0 0.00 0.01 0.01 44 1011.4
20260504233851 59 332 5.0 11.0 0.00 0.01 0.01 45 1011.4
20260504233828 59 0 5.0 11.0 0.00 0.01 0.01 45 1011.4
20260504233620 59 340 6.0 13.0 0.00 0.01 0.01 45 1011.4
20260504233518 59 355 6.0 13.0 0.00 0.01 0.01 45 1011.4
20260504233419 59 340 6.0 13.0 0.00 0.01 0.01 44 1011.4
20260504233347 59 347 6.0 13.0 0.00 0.01 0.01 44 1011.4
20260504233320 59 291 6.0 13.0 0.00 0.01 0.01 44 1011.4
20260504233219 59 339 6.0 13.0 0.00 0.01 0.01 44 1011.4
20260504233118 59 355 7.0 13.0 0.00 0.01 0.01 44 1011.4
20260504233019 59 294 7.0 13.0 0.00 0.01 0.01 44 1011.5
20260504232913 59 333 7.0 13.0 0.00 0.01 0.01 44 1011.5
20260504232846 59 350 7.0 13.0 0.00 0.01 0.01 45 1011.5
20260504232814 59 349 7.0 13.0 0.00 0.01 0.01 45 1011.5
20260504232711 59 347 8.0 14.0 0.00 0.01 0.01 44 1011.5
20260504232619 59 321 8.0 15.0 0.00 0.01 0.01 44 1011.5
20260504232405 59 344 8.0 15.0 0.00 0.01 0.01 44 1011.4
20260504232346 59 350 9.0 15.0 0.00 0.01 0.01 44 1011.4
20260504232312 59 324 9.0 15.0 0.00 0.01 0.01 44 1011.4
20260504232105 59 332 9.0 15.0 0.00 0.01 0.01 44 1011.4
20260504232005 59 351 9.0 15.0 0.00 0.01 0.01 44 1011.3
20260504231918 59 339 9.0 15.0 0.00 0.01 0.01 44 1011.4
20260504231914 59 355 9.0 15.0 0.00 0.01 0.01 44 1011.3
20260504231704 59 319 9.0 15.0 0.00 0.01 0.01 44 1011.3
20260504231613 59 333 9.0 14.0 0.00 0.01 0.01 44 1011.3
20260504231404 59 308 9.0 14.0 0.00 0.01 0.01 45 1011.4
20260504231347 59 293 9.0 14.0 0.00 0.01 0.01 45 1011.4
20260504231305 59 328 9.0 14.0 0.00 0.01 0.01 45 1011.4
20260504231201 59 321 9.0 14.0 0.00 0.01 0.01 45 1011.4
20260504231101 59 306 9.0 14.0 0.00 0.01 0.01 44 1011.5
20260504231002 59 298 10.0 14.0 0.00 0.01 0.01 44 1011.5
20260504230914 59 296 10.0 17.0 0.00 0.01 0.01 44 1011.5
20260504230909 59 297 10.0 17.0 0.00 0.01 0.01 44 1011.4
20260504230700 59 319 10.0 17.0 0.00 0.01 0.01 44 1011.4
20260504230600 59 291 10.0 19.0 0.00 0.01 0.01 44 1011.3
20260504230509 59 347 10.0 19.0 0.00 0.01 0.01 44 1011.3
20260504230347 59 317 10.0 19.0 0.00 0.01 0.01 44 1011.3
20260504230300 59 322 10.0 19.0 0.00 0.01 0.01 43 1011.3
20260504230209 59 319 11.0 19.0 0.00 0.01 0.01 43 1011.3
20260504225959 59 310 11.0 19.0 0.00 0.01 0.01 43 1011.1
20260504225858 58 324 11.0 19.0 0.00 0.01 0.01 44 1011.1
20260504225847 58 5 11.0 19.0 0.00 0.01 0.01 44 1011.1
20260504225758 58 343 11.0 19.0 0.00 0.01 0.01 43 1011.1
20260504225659 58 300 11.0 19.0 0.00 0.01 0.01 45 1011.3
20260504225558 58 312 11.0 18.0 0.00 0.01 0.01 45 1011.3
20260504225500 58 319 11.0 18.0 0.00 0.01 0.01 45 1011.4
20260504225359 58 296 11.0 18.0 0.00 0.01 0.01 44 1011.3
20260504225347 58 292 11.0 18.0 0.00 0.01 0.01 44 1011.3
20260504225259 58 355 11.0 18.0 0.00 0.01 0.01 44 1011.3
20260504225158 58 319 11.0 18.0 0.00 0.01 0.01 44 1011.3
20260504225107 58 297 11.0 18.0 0.00 0.01 0.01 44 1011.3
20260504224912 59 324 10.0 17.0 0.00 0.01 0.01 43 1011.1
20260504224906 58 318 10.0 17.0 0.00 0.01 0.01 43 1011.1
20260504224700 58 293 9.0 16.0 0.00 0.01 0.01 44 1011.3
20260504224605 58 313 9.0 16.0 0.00 0.01 0.01 45 1011.3
20260504224410 59 5 10.0 16.0 0.00 0.01 0.01 43 1011.3
20260504224406 58 338 10.0 16.0 0.00 0.01 0.01 43 1011.4
20260504224158 59 355 10.0 17.0 0.00 0.01 0.01 43 1011.4
20260504224055 58 296 10.0 17.0 0.00 0.01 0.01 44 1011.5
20260504223955 59 320 10.0 17.0 0.00 0.01 0.01 43 1011.5
20260504223855 59 347 10.0 17.0 0.00 0.01 0.01 43 1011.6
20260504223846 59 311 10.0 17.0 0.00 0.01 0.01 43 1011.6
20260504223755 59 269 10.0 17.0 0.00 0.01 0.01 44 1011.6
20260504223655 59 313 9.0 17.0 0.00 0.01 0.01 44 1011.6
20260504223555 59 331 9.0 17.0 0.00 0.01 0.01 44 1011.7
20260504223455 59 348 8.0 17.0 0.00 0.01 0.01 44 1011.7
20260504223354 59 319 8.0 17.0 0.00 0.01 0.01 44 1011.7
20260504223347 59 317 7.0 17.0 0.00 0.01 0.01 44 1011.7
20260504223254 59 311 7.0 16.0 0.00 0.01 0.01 45 1011.7
20260504223155 59 315 6.0 15.0 0.00 0.01 0.01 45 1011.6
20260504223054 59 322 6.0 15.0 0.00 0.01 0.01 45 1011.6
20260504222954 59 313 5.0 10.0 0.00 0.01 0.01 46 1011.6
20260504222854 59 332 5.0 10.0 0.00 0.01 0.01 46 1011.6
20260504222846 58 355 4.0 10.0 0.00 0.01 0.01 46 1011.6
20260504222755 58 334 4.0 10.0 0.00 0.01 0.01 46 1011.6
20260504222655 58 344 4.0 10.0 0.00 0.01 0.01 45 1011.6
20260504222555 58 311 4.0 10.0 0.00 0.01 0.01 45 1011.7
20260504222454 58 299 4.0 10.0 0.00 0.01 0.01 50 1011.6
20260504222405 58 26 4.0 10.0 0.00 0.01 0.01 50 1011.6
20260504222401 58 40 5.0 10.0 0.00 0.01 0.01 50 1011.7
20260504222148 58 5 5.0 12.0 0.00 0.01 0.01 49 1011.7
20260504222056 58 348 6.0 16.0 0.00 0.01 0.01 50 1011.7
20260504221851 58 321 7.0 16.0 0.00 0.01 0.01 47 1011.7
20260504221847 58 0 8.0 16.0 0.00 0.01 0.01 47 1011.7
20260504221749 59 9 8.0 16.0 0.00 0.01 0.01 47 1011.7
20260504221642 59 25 8.0 16.0 0.00 0.01 0.01 47 1011.7
20260504221551 59 355 9.0 16.0 0.00 0.01 0.01 46 1011.6
20260504221347 59 5 9.0 16.0 0.00 0.01 0.01 46 1011.5
20260504221342 59 316 9.0 16.0 0.00 0.01 0.01 46 1011.5
20260504221243 59 24 9.0 16.0 0.00 0.01 0.01 45 1011.5
20260504221143 59 0 9.0 16.0 0.00 0.01 0.01 45 1011.4
20260504221043 59 350 9.0 16.0 0.00 0.01 0.01 45 1011.3
20260504220939 59 327 10.0 18.0 0.00 0.01 0.01 43 1011.3
20260504220846 59 311 10.0 18.0 0.00 0.01 0.01 42 1011.3
20260504220838 59 286 10.0 18.0 0.00 0.01 0.01 42 1011.3
20260504220739 59 339 10.0 18.0 0.00 0.01 0.01 42 1011.3
20260504220639 60 332 11.0 18.0 0.00 0.01 0.01 41 1011.3
20260504220539 60 298 11.0 19.0 0.00 0.01 0.01 41 1011.3
20260504220439 60 294 11.0 19.0 0.00 0.01 0.01 41 1011.3
20260504220338 60 327 11.0 19.0 0.00 0.01 0.01 41 1011.1
20260504220239 60 346 12.0 19.0 0.00 0.01 0.01 41 1011.1
20260504220139 60 343 11.0 19.0 0.00 0.01 0.01 41 1011.0
20260504220045 60 242 12.0 19.0 0.00 0.01 0.01 41 1011.0
20260504215847 60 312 12.0 19.0 0.00 0.01 0.01 41 1010.9
20260504215839 60 340 12.0 19.0 0.00 0.01 0.01 41 1010.9
20260504215739 60 0 11.0 19.0 0.00 0.01 0.01 41 1010.8
20260504215639 60 332 11.0 19.0 0.00 0.01 0.01 40 1010.9
20260504215539 60 51 11.0 19.0 0.00 0.01 0.01 40 1010.8
20260504215438 60 11 11.0 19.0 0.00 0.01 0.01 41 1010.8
20260504215346 60 355 11.0 24.0 0.00 0.01 0.01 40 1010.7
20260504215338 61 5 11.0 24.0 0.00 0.01 0.01 40 1010.7
20260504215239 61 24 11.0 24.0 0.00 0.01 0.01 40 1010.7
20260504215139 61 41 11.0 24.0 0.00 0.01 0.01 40 1010.5
20260504215053 61 35 12.0 24.0 0.00 0.01 0.01 39 1010.5
20260504215046 61 355 12.0 24.0 0.00 0.01 0.01 39 1010.4
20260504214736 61 306 13.0 24.0 0.00 0.01 0.01 39 1010.4
20260504214634 61 20 13.0 24.0 0.00 0.01 0.01 38 1010.4
20260504214600 61 303 13.0 24.0 0.00 0.01 0.01 38 1010.4
20260504214334 62 324 13.0 24.0 0.00 0.01 0.01 38 1010.4
20260504214235 62 355 13.0 24.0 0.00 0.01 0.01 37 1010.3
20260504214141 62 315 13.0 24.0 0.00 0.01 0.01 38 1010.3
20260504213935 62 344 12.0 24.0 0.00 0.01 0.01 36 1010.3
20260504213846 62 0 12.0 24.0 0.00 0.01 0.01 36 1010.2
20260504213835 62 5 12.0 24.0 0.00 0.01 0.01 36 1010.2
20260504213734 63 316 12.0 24.0 0.00 0.01 0.01 36 1010.3
20260504213634 63 34 11.0 24.0 0.00 0.01 0.01 37 1010.2
20260504213542 63 337 12.0 24.0 0.00 0.01 0.01 36 1010.2
20260504213347 63 349 11.0 22.0 0.00 0.01 0.01 36 1010.1
20260504213335 63 5 11.0 22.0 0.00 0.01 0.01 36 1010.1
20260504213234 63 71 12.0 22.0 0.00 0.01 0.01 35 1010.2
20260504213131 64 355 11.0 23.0 0.00 0.01 0.01 36 1010.1
20260504213101 64 347 11.0 23.0 0.00 0.01 0.01 35 1010.2
20260504212831 65 341 11.0 23.0 0.00 0.01 0.01 33 1010.2
20260504212730 65 15 10.0 23.0 0.00 0.01 0.01 33 1010.3
20260504212631 65 355 9.0 23.0 0.00 0.01 0.01 32 1010.3
20260504212531 66 332 9.0 23.0 0.00 0.01 0.01 33 1010.3
20260504212454 66 327 8.0 23.0 0.00 0.01 0.01 33 1010.3
20260504212336 66 13 7.0 23.0 0.00 0.01 0.01 32 1010.3
20260504212130 66 14 6.0 14.0 0.00 0.01 0.01 29 1010.1
20260504212030 66 65 6.0 14.0 0.00 0.01 0.01 30 1010.1
20260504211931 66 54 6.0 14.0 0.00 0.01 0.01 31 1010.1
20260504211848 66 77 6.0 10.0 0.00 0.01 0.01 29 1010.0
20260504211831 66 74 6.0 10.0 0.00 0.01 0.01 29 1010.0
20260504211731 66 53 5.0 10.0 0.00 0.01 0.01 31 1010.0
20260504211637 66 76 5.0 10.0 0.00 0.01 0.01 30 1010.0
20260504211430 66 64 5.0 10.0 0.00 0.01 0.01 30 1010.0
20260504211330 66 84 5.0 10.0 0.00 0.01 0.01 30 1010.0
20260504211227 66 88 5.0 10.0 0.00 0.01 0.01 29 1010.0
20260504211149 66 81 5.0 9.0 0.00 0.01 0.01 33 1010.0
20260504211142 66 103 5.0 9.0 0.00 0.01 0.01 31 1010.0
20260504210720 66 80 6.0 10.0 0.00 0.01 0.01 33 1010.0
20260504210626 65 58 6.0 10.0 0.00 0.01 0.01 33 1010.0
20260504210452 65 129 5.0 10.0 0.00 0.01 0.01 31 1010.0
20260504210318 65 107 6.0 10.0 0.00 0.01 0.01 31 1010.0
20260504210213 65 106 6.0 10.0 0.00 0.01 0.01 32 1010.1
20260504210113 65 77 5.0 10.0 0.00 0.01 0.01 32 1010.0
20260504210012 65 95 5.0 10.0 0.00 0.01 0.01 33 1010.1
20260504205912 65 126 5.0 10.0 0.00 0.01 0.01 32 1010.1
20260504205844 65 109 5.0 10.0 0.00 0.01 0.01 32 1010.2
20260504205810 65 129 5.0 10.0 0.00 0.01 0.01 32 1010.2
20260504205706 65 107 4.0 8.0 0.00 0.01 0.01 33 1010.2
20260504205605 65 109 4.0 8.0 0.00 0.01 0.01 33 1010.2
20260504205504 65 141 4.0 8.0 0.00 0.01 0.01 33 1010.2
20260504205453 65 123 4.0 8.0 0.00 0.01 0.01 35 1010.2
20260504205305 65 112 4.0 8.0 0.00 0.01 0.01 36 1010.2
20260504205157 65 105 4.0 8.0 0.00 0.01 0.01 36 1010.2
20260504205104 64 119 4.0 9.0 0.00 0.01 0.01 36 1010.2
20260504204857 64 148 4.0 9.0 0.00 0.01 0.01 36 1010.3
20260504204845 64 138 4.0 9.0 0.00 0.01 0.01 36 1010.3
20260504204755 64 128 4.0 9.0 0.00 0.01 0.01 38 1010.2
20260504204650 64 135 5.0 9.0 0.00 0.01 0.01 36 1010.2
20260504204549 64 128 4.0 9.0 0.00 0.01 0.01 36 1010.2
20260504204449 64 110 4.0 9.0 0.00 0.01 0.01 38 1010.2
20260504204351 64 143 4.0 9.0 0.00 0.01 0.01 36 1010.2
20260504204346 64 142 4.0 9.0 0.00 0.01 0.01 36 1010.2
20260504204250 64 126 4.0 9.0 0.00 0.01 0.01 36 1010.3
20260504204143 63 128 4.0 9.0 0.00 0.01 0.01 37 1010.3
20260504204044 63 110 4.0 8.0 0.00 0.01 0.01 38 1010.3
20260504203944 63 86 4.0 8.0 0.00 0.01 0.01 38 1010.3
20260504203859 63 117 4.0 8.0 0.00 0.01 0.01 39 1010.3
20260504203855 63 93 4.0 8.0 0.00 0.01 0.01 39 1010.3
20260504203538 63 115 4.0 8.0 0.00 0.01 0.01 40 1010.4
20260504203440 63 121 4.0 8.0 0.00 0.01 0.01 40 1010.5
20260504203344 63 154 4.0 8.0 0.00 0.01 0.01 40 1010.5
20260504203340 62 159 4.0 8.0 0.00 0.01 0.01 40 1010.5
20260504203236 62 160 4.0 8.0 0.00 0.01 0.01 41 1010.5
20260504203131 62 150 4.0 8.0 0.00 0.01 0.01 41 1010.5
20260504203057 62 121 4.0 10.0 0.00 0.01 0.01 41 1010.5
20260504202837 62 111 4.0 10.0 0.00 0.01 0.01 41 1010.5
20260504202627 62 115 4.0 10.0 0.00 0.01 0.01 40 1010.7
20260504202524 62 143 4.0 12.0 0.00 0.01 0.01 40 1010.8
20260504202425 62 126 4.0 12.0 0.00 0.01 0.01 41 1010.8
20260504202342 62 132 4.0 12.0 0.01 0.01 0.01 41 1010.8
20260504202325 62 146 4.0 12.0 0.01 0.01 0.01 41 1010.8
20260504202225 62 126 4.0 12.0 0.01 0.01 0.01 41 1010.9
20260504202024 62 121 5.0 12.0 0.01 0.01 0.01 41 1010.9
20260504201844 61 175 5.0 12.0 0.01 0.01 0.01 40 1011.0
20260504201817 61 153 5.0 12.0 0.01 0.01 0.01 40 1011.0
20260504201716 61 166 5.0 12.0 0.01 0.01 0.01 41 1011.0
20260504201620 61 162 6.0 12.0 0.01 0.01 0.01 41 1011.1
20260504201451 61 179 6.0 13.0 0.01 0.01 0.01 44 1011.1
20260504201314 61 185 7.0 14.0 0.01 0.01 0.01 45 1011.3
20260504201209 61 205 7.0 18.0 0.01 0.01 0.01 44 1011.3
20260504201111 60 144 8.0 18.0 0.01 0.01 0.01 42 1011.3
20260504200905 60 137 7.0 18.0 0.01 0.01 0.01 43 1011.3
20260504200841 60 126 7.0 18.0 0.01 0.01 0.01 43 1011.3
20260504200803 60 115 7.0 18.0 0.01 0.01 0.01 43 1011.3
20260504200702 60 113 7.0 18.0 0.01 0.01 0.01 43 1011.4
20260504200559 60 131 7.0 18.0 0.01 0.01 0.01 42 1011.5
20260504200459 60 134 7.0 18.0 0.01 0.01 0.01 44 1011.5
20260504200443 60 175 7.0 18.0 0.01 0.01 0.01 48 1011.6
20260504200258 60 198 6.0 18.0 0.01 0.01 0.01 49 1011.4
20260504200158 60 200 6.0 13.0 0.01 0.01 0.01 51 1011.4
20260504195951 59 194 7.0 15.0 0.01 0.01 0.01 54 1011.4
20260504195850 59 178 7.0 15.0 0.01 0.01 0.01 50 1011.4
20260504195831 59 186 7.0 15.0 0.01 0.01 0.01 50 1011.4
20260504195751 59 180 7.0 15.0 0.01 0.01 0.01 52 1011.3
20260504195652 59 159 7.0 15.0 0.01 0.01 0.01 50 1011.3
20260504195559 59 116 8.0 15.0 0.01 0.01 0.01 48 1011.3
20260504195325 59 90 8.0 18.0 0.01 0.01 0.01 50 1011.3
20260504195246 58 163 7.0 18.0 0.01 0.01 0.01 49 1011.1
20260504195144 58 128 8.0 18.0 0.01 0.01 0.01 51 1011.1
20260504195041 58 123 8.0 18.0 0.01 0.01 0.01 51 1011.3
20260504194940 58 133 9.0 18.0 0.01 0.01 0.01 51 1011.0
20260504194838 58 133 9.0 18.0 0.01 0.01 0.01 51 1011.0
20260504194819 58 167 9.0 18.0 0.01 0.01 0.01 53 1011.0
20260504194739 58 143 9.0 18.0 0.01 0.01 0.01 52 1011.0
20260504194638 58 108 9.0 18.0 0.01 0.01 0.01 53 1011.1
20260504194534 58 131 9.0 18.0 0.01 0.01 0.01 55 1011.1
20260504194433 58 120 9.0 16.0 0.01 0.01 0.01 55 1011.0
20260504194333 58 148 9.0 16.0 0.01 0.01 0.01 51 1011.1
20260504194312 58 113 9.0 16.0 0.01 0.01 0.01 51 1011.1
20260504194232 58 84 10.0 18.0 0.01 0.01 0.01 50 1011.0
20260504194132 58 122 10.0 18.0 0.01 0.01 0.01 52 1011.0
20260504194029 58 123 10.0 18.0 0.01 0.01 0.01 53 1011.0
20260504194001 58 115 10.0 18.0 0.01 0.01 0.01 56 1011.0
20260504193954 58 138 10.0 18.0 0.01 0.01 0.01 55 1011.1
20260504193332 59 140 12.0 26.0 0.01 0.01 0.01 49 1011.1
20260504193325 59 182 12.0 29.0 0.01 0.01 0.01 49 1011.1
20260504193123 59 181 13.0 29.0 0.01 0.01 0.01 49 1011.1
20260504192915 60 138 14.0 30.0 0.01 0.01 0.01 45 1011.1
20260504192826 60 155 15.0 30.0 0.01 0.01 0.01 44 1011.1
20260504192820 60 170 15.0 30.0 0.01 0.01 0.01 43 1011.1
20260504192615 61 123 16.0 30.0 0.01 0.01 0.01 44 1010.9
20260504192509 62 150 16.0 30.0 0.01 0.01 0.01 44 1010.9
20260504192409 62 210 15.0 30.0 0.00 0.00 0.01 43 1011.0
20260504192311 63 180 15.0 30.0 0.00 0.00 0.00 40 1010.8
20260504192304 63 182 15.0 30.0 0.00 0.00 0.00 40 1010.8
20260504192210 64 164 15.0 30.0 0.00 0.00 0.00 37 1010.9
20260504192111 64 186 14.0 30.0 0.00 0.00 0.00 36 1010.9
20260504191905 65 190 13.0 30.0 0.00 0.00 0.00 33 1010.8
20260504191810 66 195 12.0 30.0 0.00 0.00 0.00 30 1010.9
20260504191805 66 121 12.0 30.0 0.00 0.00 0.00 30 1010.9
20260504191706 66 188 11.0 24.0 0.00 0.00 0.00 27 1010.9
20260504191603 66 167 10.0 21.0 0.00 0.00 0.00 27 1010.8
20260504191458 67 159 9.0 21.0 0.00 0.00 0.00 26 1010.8
20260504191357 67 146 9.0 21.0 0.00 0.00 0.00 25 1010.9
20260504191304 67 131 8.0 21.0 0.00 0.00 0.00 24 1010.8
20260504191256 67 132 8.0 21.0 0.00 0.00 0.00 24 1010.8
20260504191158 67 136 7.0 20.0 0.00 0.00 0.00 23 1010.8
20260504191056 67 117 6.0 20.0 0.00 0.00 0.00 22 1010.4
20260504191008 68 144 5.0 20.0 0.00 0.00 0.00 24 1010.4
20260504190854 68 146 4.0 11.0 0.00 0.00 0.00 23 1010.3
20260504190658 68 206 5.0 9.0 0.00 0.00 0.00 23 1010.2
20260504190445 68 268 5.0 12.0 0.00 0.00 0.00 24 1010.2
20260504190346 68 300 5.0 12.0 0.00 0.00 0.00 24 1010.1
20260504190303 68 225 5.0 12.0 0.00 0.00 0.00 23 1010.1
20260504190245 68 306 6.0 12.0 0.00 0.00 0.00 23 1010.1
20260504190153 68 252 6.0 12.0 0.00 0.00 0.00 24 1010.1
20260504185850 68 247 7.0 12.0 0.00 0.00 0.00 24 1010.1
20260504185843 68 280 7.0 12.0 0.00 0.00 0.00 24 1010.1
20260504185639 68 264 7.0 15.0 0.00 0.00 0.00 24 1010.1
20260504185538 68 294 7.0 15.0 0.00 0.00 0.00 24 1010.0
20260504185435 69 290 7.0 15.0 0.00 0.00 0.00 24 1010.0
20260504185335 69 291 7.0 15.0 0.00 0.00 0.00 23 1010.0
20260504185301 69 300 7.0 15.0 0.00 0.00 0.00 23 1010.0
20260504185242 69 296 7.0 15.0 0.00 0.00 0.00 23 1010.0
20260504185036 69 273 7.0 15.0 0.00 0.00 0.00 23 1009.8
20260504184907 69 348 6.0 15.0 0.00 0.00 0.00 23 1009.8
20260504184727 69 324 6.0 15.0 0.00 0.00 0.00 24 1010.0
20260504184627 69 281 6.0 13.0 0.00 0.00 0.00 23 1010.0
20260504184525 69 300 6.0 14.0 0.00 0.00 0.00 22 1010.0
20260504184423 69 329 6.0 15.0 0.00 0.00 0.00 22 1009.8
20260504184323 69 283 6.0 15.0 0.00 0.00 0.00 22 1009.8
20260504184300 69 331 6.0 15.0 0.00 0.00 0.00 22 1009.8
20260504184230 69 348 5.0 15.0 0.00 0.00 0.00 22 1009.8
20260504184023 69 355 6.0 15.0 0.00 0.00 0.00 22 1009.8
20260504183907 69 355 6.0 15.0 0.00 0.00 0.00 22 1009.8
20260504183715 69 338 6.0 15.0 0.00 0.00 0.00 22 1009.8
20260504183616 69 355 6.0 15.0 0.00 0.00 0.00 22 1009.8
20260504183519 69 17 5.0 15.0 0.00 0.00 0.00 23 1010.0
20260504183310 69 22 4.0 12.0 0.00 0.00 0.00 23 1009.8
20260504183301 69 16 4.0 12.0 0.00 0.00 0.00 23 1009.8
20260504183216 69 5 4.0 12.0 0.00 0.00 0.00 23 1010.0
20260504183008 69 13 4.0 13.0 0.00 0.00 0.00 23 1010.0
20260504182904 69 42 4.0 13.0 0.00 0.00 0.00 21 1010.0
20260504182803 69 24 4.0 13.0 0.00 0.00 0.00 23 1010.0
20260504182704 69 24 4.0 13.0 0.00 0.00 0.00 22 1010.0
20260504182603 69 339 5.0 13.0 0.00 0.00 0.00 23 1010.0
20260504182502 69 339 5.0 13.0 0.00 0.00 0.00 21 1010.0
20260504182410 69 339 5.0 13.0 0.00 0.00 0.00 22 1010.0
20260504182258 69 5 6.0 13.0 0.00 0.00 0.00 21 1010.1
20260504182157 69 325 6.0 13.0 0.00 0.00 0.00 24 1010.1
20260504182056 69 17 6.0 13.0 0.00 0.00 0.00 22 1010.1
20260504181956 69 327 7.0 13.0 0.00 0.00 0.00 22 1010.1
20260504181853 69 323 7.0 15.0 0.00 0.00 0.00 22 1010.1
20260504181758 69 5 7.0 15.0 0.00 0.00 0.00 22 1010.1
20260504181753 69 355 7.0 15.0 0.00 0.00 0.00 22 1010.1
20260504181654 69 322 7.0 15.0 0.00 0.00 0.00 23 1010.1
20260504181553 69 5 7.0 15.0 0.00 0.00 0.00 23 1010.1
20260504181506 69 11 7.0 17.0 0.00 0.00 0.00 23 1010.1
20260504181351 69 321 7.0 17.0 0.00 0.00 0.00 24 1010.1
20260504181144 69 24 7.0 17.0 0.00 0.00 0.00 24 1010.2
20260504181050 69 21 7.0 17.0 0.00 0.00 0.00 23 1010.2
20260504180900 69 296 7.0 17.0 0.00 0.00 0.00 24 1010.2
20260504180739 69 332 8.0 17.0 0.00 0.00 0.00 24 1010.3
20260504180650 69 329 9.0 17.0 0.00 0.00 0.00 24 1010.3
20260504180331 69 269 9.0 15.0 0.00 0.00 0.00 23 1010.3
20260504180252 69 284 10.0 15.0 0.00 0.00 0.00 23 1010.3
20260504180231 69 290 10.0 15.0 0.00 0.00 0.00 22 1010.3
20260504180132 69 333 10.0 15.0 0.00 0.00 0.00 23 1010.3
20260504180031 69 296 10.0 15.0 0.00 0.00 0.00 23 1010.4
20260504175930 69 274 9.0 15.0 0.00 0.00 0.00 24 1010.4
20260504175854 69 277 10.0 18.0 0.00 0.00 0.00 23 1010.4
20260504175724 69 290 9.0 18.0 0.00 0.00 0.00 24 1010.4
20260504175624 69 324 9.0 18.0 0.00 0.00 0.00 24 1010.4
20260504175535 69 355 9.0 18.0 0.00 0.00 0.00 25 1010.4
20260504175240 70 333 10.0 18.0 0.00 0.00 0.00 23 1010.4
20260504175227 69 338 10.0 18.0 0.00 0.00 0.00 24 1010.4
20260504175018 70 340 10.0 18.0 0.00 0.00 0.00 23 1010.5
20260504174918 70 304 11.0 18.0 0.00 0.00 0.00 23 1010.5
20260504174834 70 324 10.0 16.0 0.00 0.00 0.00 23 1010.5
20260504174826 70 335 10.0 16.0 0.00 0.00 0.00 23 1010.5
20260504174515 70 320 10.0 16.0 0.00 0.00 0.00 23 1010.7
20260504174411 70 300 10.0 15.0 0.00 0.00 0.00 23 1010.7
20260504174307 71 265 9.0 15.0 0.00 0.00 0.00 24 1010.7
20260504174228 71 328 9.0 15.0 0.00 0.00 0.00 23 1010.7
20260504174214 71 315 9.0 15.0 0.00 0.00 0.00 23 1010.7
20260504174007 71 288 9.0 17.0 0.00 0.00 0.00 23 1010.7
20260504173906 71 319 9.0 17.0 0.00 0.00 0.00 23 1010.8
20260504173800 71 279 9.0 17.0 0.00 0.00 0.00 23 1010.8
20260504173721 71 338 10.0 17.0 0.00 0.00 0.00 24 1010.8
20260504173701 71 290 10.0 17.0 0.00 0.00 0.00 24 1010.8
20260504173601 71 261 10.0 17.0 0.00 0.00 0.00 25 1010.9
20260504173501 71 318 10.0 17.0 0.00 0.00 0.00 25 1010.9
20260504173430 71 325 11.0 17.0 0.00 0.00 0.00 24 1010.9
20260504173155 71 343 11.0 17.0 0.00 0.00 0.00 23 1011.0
20260504173055 71 336 11.0 17.0 0.00 0.00 0.00 23 1011.0
20260504172955 71 306 11.0 17.0 0.00 0.00 0.00 23 1011.0
20260504172855 71 308 10.0 17.0 0.00 0.00 0.00 23 1011.1
20260504172748 71 292 10.0 17.0 0.00 0.00 0.00 25 1011.1
20260504172710 71 279 10.0 17.0 0.00 0.00 0.00 23 1011.1
20260504172648 71 306 10.0 17.0 0.00 0.00 0.00 23 1011.1
20260504172548 71 328 10.0 17.0 0.00 0.00 0.00 23 1011.1
20260504172449 71 279 10.0 17.0 0.00 0.00 0.00 24 1011.1
20260504172348 71 304 10.0 17.0 0.00 0.00 0.00 25 1011.1
20260504172244 71 277 10.0 19.0 0.00 0.00 0.00 24 1011.1
20260504172205 71 315 10.0 19.0 0.00 0.00 0.00 24 1011.1
20260504172145 70 284 10.0 19.0 0.00 0.00 0.00 24 1011.1
20260504172046 70 263 10.0 19.0 0.00 0.00 0.00 24 1011.1
20260504171944 70 282 10.0 19.0 0.00 0.00 0.00 23 1011.1
20260504171842 70 309 10.0 19.0 0.00 0.00 0.00 24 1011.1
20260504171747 70 304 10.0 19.0 0.00 0.00 0.00 24 1011.3
20260504171740 70 259 10.0 19.0 0.00 0.00 0.00 24 1011.3
20260504171537 70 294 10.0 19.0 0.00 0.00 0.00 24 1011.3
20260504171443 70 306 11.0 19.0 0.00 0.00 0.00 24 1011.3
20260504171231 70 346 10.0 20.0 0.00 0.00 0.00 24 1011.3
20260504171152 70 331 10.0 20.0 0.00 0.00 0.00 25 1011.3
20260504171131 70 301 10.0 20.0 0.00 0.00 0.00 25 1011.3
20260504171031 69 319 10.0 20.0 0.00 0.00 0.00 24 1011.4
20260504170932 69 284 10.0 20.0 0.00 0.00 0.00 25 1011.4
20260504170830 69 289 10.0 20.0 0.00 0.00 0.00 25 1011.3
20260504170728 69 244 10.0 20.0 0.00 0.00 0.00 24 1011.4
20260504170645 69 278 10.0 20.0 0.00 0.00 0.00 24 1011.4
20260504170624 69 300 10.0 20.0 0.00 0.00 0.00 24 1011.4
20260504170525 69 291 10.0 20.0 0.00 0.00 0.00 24 1011.3
20260504170425 69 308 10.0 20.0 0.00 0.00 0.00 24 1011.3
20260504170325 69 318 10.0 20.0 0.00 0.00 0.00 24 1011.4
20260504170219 69 304 9.0 20.0 0.00 0.00 0.00 25 1011.3
20260504170140 69 345 10.0 18.0 0.00 0.00 0.00 26 1011.4
20260504170118 69 323 10.0 18.0 0.00 0.00 0.00 26 1011.4
20260504160312 64 252 9.0 15.0 0.00 0.00 0.00 29 1012.0
20260504160213 64 244 9.0 15.0 0.00 0.00 0.00 28 1012.1
20260504151122 63 203 1.0 4.0 0.00 0.00 0.00 30 1012.1
20260504150928 63 211 1.0 4.0 0.00 0.00 0.00 28 1012.1
20260504150915 63 211 1.0 4.0 0.00 0.00 0.00 30 1012.1
20260504150814 63 240 1.0 4.0 0.00 0.00 0.00 29 1012.1
20260504150713 63 284 2.0 4.0 0.00 0.00 0.00 31 1012.1
20260504150611 63 177 2.0 4.0 0.00 0.00 0.00 30 1012.1
20260504150511 63 253 2.0 6.0 0.00 0.00 0.00 31 1012.2
20260504150422 63 253 2.0 7.0 0.00 0.00 0.00 31 1012.2
20260504150416 63 253 2.0 7.0 0.00 0.00 0.00 29 1012.2
20260504150207 63 253 3.0 7.0 0.00 0.00 0.00 30 1012.1
20260504150104 63 255 3.0 7.0 0.00 0.00 0.00 29 1012.2
20260504141322 59 253 5.0 10.0 0.00 0.00 0.00 29 1012.2
20260504141301 59 278 5.0 10.0 0.00 0.00 0.00 29 1012.2
20260504141201 59 275 5.0 10.0 0.00 0.00 0.00 28 1012.3
20260504141100 58 262 5.0 10.0 0.00 0.00 0.00 29 1012.2
20260504141000 58 261 5.0 9.0 0.00 0.00 0.00 29 1012.2
20260504140855 58 262 4.0 9.0 0.00 0.00 0.00 30 1012.2
20260504140816 58 271 4.0 9.0 0.00 0.00 0.00 30 1012.2
20260504140801 58 292 4.0 8.0 0.00 0.00 0.00 30 1012.2
20260504140554 58 265 4.0 8.0 0.00 0.00 0.00 30 1012.2
20260504140454 57 265 4.0 8.0 0.00 0.00 0.00 31 1012.2
20260504140348 57 263 3.0 8.0 0.00 0.00 0.00 30 1012.2
20260504140309 57 283 3.0 8.0 0.00 0.00 0.00 31 1012.2
20260504140249 57 284 3.0 8.0 0.00 0.00 0.00 31 1012.2
20260504140155 57 243 3.0 8.0 0.00 0.00 0.00 31 1012.3
20260504130758 53 186 4.0 13.0 0.00 0.00 0.00 31 1011.9
20260504130717 53 277 4.0 13.0 0.00 0.00 0.00 31 1011.9
20260504130658 53 256 4.0 13.0 0.00 0.00 0.00 32 1011.9
20260504130558 53 279 4.0 13.0 0.00 0.00 0.00 33 1011.9
20260504130459 53 259 3.0 13.0 0.00 0.00 0.00 33 1011.9
20260504130359 52 313 3.0 7.0 0.00 0.00 0.00 34 1011.9
20260504130259 52 269 3.0 7.0 0.00 0.00 0.00 33 1011.9
20260504130217 52 261 3.0 7.0 0.00 0.00 0.00 33 1011.7
20260504130158 52 321 3.0 7.0 0.00 0.00 0.00 32 1011.7
20260504120310 45 207 1.0 3.0 0.00 0.00 0.00 43 1011.4
20260504120210 45 207 1.0 3.0 0.00 0.00 0.00 43 1011.4
20260504120107 45 207 1.0 3.0 0.00 0.00 0.00 43 1011.4
20260504110644 43 225 1.0 2.0 0.00 0.00 0.00 46 1011.9
20260504110552 43 225 1.0 2.0 0.00 0.00 0.00 46 1011.7
20260504110344 43 225 1.0 2.0 0.00 0.00 0.00 46 1011.9
20260504110255 43 225 1.0 2.0 0.00 0.00 0.00 46 1011.9
20260504110248 44 225 1.0 3.0 0.00 0.00 0.00 45 1011.9
20260504100532 44 203 3.0 4.0 0.00 0.00 0.00 45 1012.2
20260504100431 44 203 3.0 4.0 0.00 0.00 0.00 45 1012.2
20260504100328 44 203 3.0 6.0 0.00 0.00 0.00 45 1012.2
20260504100226 44 203 3.0 6.0 0.00 0.00 0.00 45 1012.2
20260504100127 44 203 3.0 6.0 0.00 0.00 0.00 45 1012.2
20260504090123 45 208 2.0 3.0 0.00 0.00 0.00 44 1012.6
20260504090109 45 208 2.0 3.0 0.00 0.00 0.00 44 1012.6
20260504081936 46 208 2.0 4.0 0.00 0.00 0.00 44 1012.9
20260504081512 46 208 2.0 4.0 0.00 0.00 0.00 44 1012.9
20260504081409 46 208 2.0 4.0 0.00 0.00 0.00 44 1013.0
20260504081310 46 208 2.0 4.0 0.00 0.00 0.00 43 1012.9
20260504081249 46 208 2.0 4.0 0.00 0.00 0.00 44 1013.0
20260504081134 47 205 1.0 4.0 0.00 0.00 0.00 44 1013.0
20260504080701 47 321 1.0 3.0 0.00 0.00 0.00 44 1013.0
20260504080556 47 321 1.0 3.0 0.00 0.00 0.00 43 1013.0
20260504080516 47 321 1.0 3.0 0.00 0.00 0.00 43 1013.0
20260504080456 47 321 1.0 3.0 0.00 0.00 0.00 43 1013.0
20260504080403 47 321 1.0 2.0 0.00 0.00 0.00 43 1013.2
20260504080155 47 321 1.0 3.0 0.00 0.00 0.00 43 1013.2
20260504070408 53 355 3.0 8.0 0.00 0.00 0.00 38 1013.5
20260504070350 53 355 3.0 8.0 0.00 0.00 0.00 38 1013.5
20260504070207 53 331 4.0 8.0 0.00 0.00 0.00 38 1013.5
20260504060232 57 308 9.0 14.0 0.00 0.00 0.00 30 1013.5
20260504060131 57 300 9.0 14.0 0.00 0.00 0.00 30 1013.5